Wind_Speed
21 24 27 28 28 27 26 26 25 23 19 17 17 18 20 21 22 22 22 21 24 28 27 23 22 23 21 21 21 18 15 16 18 18 19 20 19 17 16 17 21 25 27 28 28 26 20 14 10 8 6 6 6 5 6 6 7 8 9 10 11 12 13 14 14 14 14 14 14 14 15 17 18 18 20 23 25 27 29 32 34 36 39 42 43 44
28 30 32 31 28 24 21 20 19 19 18 18 20 21 22 23 26 26 25 24 24 24 22 18 20 21 21 22 18 11 12 14 13 13 16 19 19 18 18 21 26 27 26 27 25 20 14 10 8 6 5 5 5 6 7 8 10 11 12 12 14 15 16 16 17 18 18 17 16 15 16 17 18 19 20 22 24 25 27 29 30 32 34 37 40 43
29 31 30 27 23 19 15 15 17 18 18 19 21 24 26 26 29 28 23 19 16 17 18 18 21 23 21 21 13 7 13 13 9 9 13 18 20 20 22 26 29 27 26 26 20 13 9 7 7 6 5 5 6 8 10 13 15 15 16 16 17 18 18 19 19 20 21 20 19 19 18 18 19 20 22 23 24 26 27 29 30 31 33 35 37 40
29 28 24 21 20 17 16 15 16 18 19 19 21 24 27 26 25 23 16 12 13 16 19 21 25 26 22 18 10 12 16 14 11 12 15 18 20 22 25 28 31 28 26 23 16 10 7 5 5 5 5 6 9 13 16 19 20 20 20 20 20 20 19 20 21 21 23 23 23 23 22 22 22 22 23 24 25 27 29 30 31 32 33 34 36 37
30 27 22 20 18 16 18 17 17 19 19 19 21 25 27 23 19 18 15 14 16 18 20 22 25 23 19 15 10 14 18 20 21 23 21 20 21 23 26 30 31 28 24 19 13 10 6 4 4 4 6 9 12 17 21 23 23 22 23 22 21 20 19 19 20 21 23 24 25 25 24 24 24 24 24 25 26 28 29 31 31 32 33 34 35 36
29 24 19 19 17 17 19 19 19 19 19 21 22 23 23 19 15 15 15 16 18 19 18 15 12 11 11 10 11 16 22 27 29 26 21 20 23 25 27 30 30 26 22 16 12 10 7 6 5 6 8 10 14 19 23 24 24 24 24 24 23 21 20 20 22 22 22 23 24 24 23 22 21 21 22 23 24 24 25 27 28 29 31 32 33 34
26 20 18 18 16 16 20 21 20 19 22 24 21 17 16 15 13 14 15 17 17 15 13 10 8 12 17 16 17 21 24 28 29 25 21 21 25 27 29 29 26 23 20 16 13 11 8 7 7 8 10 12 17 21 23 24 24 25 25 25 23 21 20 21 22 22 22 23 24 23 21 20 19 18 17 18 19 19 19 20 21 22 24 25 26 28
21 17 17 17 15 18 20 17 13 14 21 22 16 12 13 14 13 14 16 18 19 20 20 17 15 19 25 23 21 21 19 23 26 25 24 25 26 28 30 27 23 21 18 16 15 12 9 9 10 11 12 15 19 22 23 23 23 24 24 23 21 19 18 18 18 19 21 23 23 22 21 20 18 17 16 15 15 15 15 15 16 16 17 18 19 20
15 14 14 14 15 18 17 10 8 11 16 17 14 12 14 13 15 17 18 19 21 22 20 17 13 14 20 22 18 13 16 21 24 25 26 27 27 28 29 27 24 21 18 17 16 14 12 12 12 12 14 17 20 21 22 22 23 23 22 20 18 17 15 16 16 17 20 22 23 22 21 20 19 18 17 16 16 15 15 15 15 16 16 17 17 17
14 14 13 14 15 16 13 10 12 14 15 15 14 14 14 14 16 17 18 21 18 16 17 18 13 11 15 19 10 4 11 17 20 24 26 28 28 27 28 27 25 24 22 19 18 17 16 15 15 15 17 19 21 22 22 23 23 23 22 19 17 16 16 16 17 18 20 22 22 22 21 21 20 20 20 20 20 20 20 20 19 19 19 19 20 20
14 14 15 16 16 15 15 14 16 16 15 16 15 16 17 17 19 19 19 18 11 10 18 19 16 14 8 6 3 3 4 8 13 18 21 25 27 27 27 27 26 26 25 22 20 19 18 18 18 18 19 19 21 22 23 23 23 23 23 22 20 19 19 19 20 21 22 23 23 23 23 23 22 23 23 24 24 24 24 24 24 24 24 24 24 24
14 15 15 16 14 15 16 16 16 16 16 17 16 18 18 14 14 13 12 10 4 6 13 11 10 16 14 8 7 7 8 10 12 12 14 18 22 24 25 26 28 28 27 25 23 21 20 20 20 20 19 19 19 20 21 23 24 25 25 26 26 25 26 26 27 28 28 28 27 27 26 26 26 26 27 27 27 27 28 28 28 28 28 28 28 28
15 16 13 11 12 14 14 16 17 18 19 20 21 20 13 5 4 4 4 4 6 10 11 7 5 13 20 21 20 20 18 17 16 13 14 16 19 22 25 28 30 30 28 26 23 21 20 20 21 22 21 21 20 21 23 23 24 25 27 29 31 32 33 35 36 37 37 36 35 32 30 29 30 30 31 31 31 31 31 31 31 30 30 30 30 30
15 16 16 16 17 17 16 17 18 19 19 19 21 20 11 3 0 3 4 2 6 10 10 9 8 8 15 18 19 23 23 20 17 16 17 19 22 24 26 29 31 30 27 25 23 21 20 20 22 24 23 22 23 25 28 29 28 28 30 32 34 35 36 37 38 40 41 41 40 37 35 33 33 33 33 34 35 35 36 35 35 34 33 33 32 32
12 14 15 16 15 15 15 15 15 16 16 13 14 14 14 10 6 4 4 2 3 4 7 10 7 4 7 9 10 14 17 19 21 22 22 22 22 24 26 29 30 30 27 24 22 21 21 22 24 25 24 23 25 29 32 33 33 34 35 36 37 37 37 37 37 39 40 41 41 39 39 39 39 39 38 38 38 38 39 39 39 39 38 37 36 35
11 13 14 13 13 16 17 14 14 15 14 12 12 13 16 18 15 11 10 11 8 4 7 14 12 11 13 15 18 20 21 25 26 25 23 22 23 24 26 28 29 27 24 22 22 22 23 24 25 25 24 24 27 30 31 32 34 37 39 40 40 40 40 40 40 39 39 40 40 40 40 42 43 44 45 44 43 42 40 40 40 40 41 40 39 39
11 13 14 15 14 16 17 15 16 16 12 10 12 15 18 17 16 13 12 15 11 4 8 15 16 17 18 21 27 27 23 24 22 20 21 21 23 24 25 26 24 22 21 22 22 23 24 24 24 24 23 24 27 29 30 33 36 39 40 40 40 40 40 41 41 40 39 39 40 41 42 44 46 47 48 50 50 49 46 43 41 40 40 40 40 39
18 19 22 24 17 14 17 16 15 16 15 13 13 14 14 13 13 12 7 6 6 4 7 14 20 21 17 16 22 21 17 17 16 16 19 20 21 22 22 22 20 20 20 21 22 23 24 24 23 23 25 26 28 30 32 35 37 39 39 40 40 40 40 40 41 41 42 43 44 45 46 48 49 50 51 53 54 54 54 52 48 44 41 40 40 40
20 20 24 27 21 16 18 18 15 15 17 18 17 15 13 11 11 11 7 4 5 5 4 10 19 25 24 22 22 19 15 14 13 12 12 12 13 15 17 18 19 20 20 20 22 23 24 24 24 26 28 29 30 32 33 35 37 38 39 40 42 42 43 44 45 45 46 48 49 50 51 52 52 52 53 54 54 55 56 56 54 50 46 42 41 40
20 17 17 21 21 18 19 21 19 16 16 18 19 18 19 17 16 16 15 11 7 5 5 7 10 15 20 21 17 13 11 13 13 12 10 10 12 15 17 19 20 20 20 21 22 23 23 24 26 27 29 31 33 35 37 38 40 41 42 44 46 47 48 49 49 50 50 50 51 50 50 50 50 50 50 50 50 50 51 52 53 52 49 46 43 41
20 18 17 20 21 19 19 21 18 13 12 13 15 17 18 18 17 18 20 21 14 5 3 4 5 11 19 20 18 16 16 17 17 16 16 16 17 17 17 18 19 19 20 21 21 23 25 26 29 31 32 35 38 41 44 46 48 49 49 50 50 50 50 50 50 49 49 48 48 47 46 46 45 45 45 45 45 44 45 45 46 47 47 47 45 44
21 20 21 24 25 26 25 21 17 14 12 12 13 14 14 14 15 12 12 20 22 14 9 8 7 12 22 25 24 22 21 19 18 17 18 18 16 15 15 16 17 19 20 22 25 28 30 33 36 38 41 44 46 48 50 50 50 50 50 50 50 49 48 48 47 46 45 45 45 44 44 43 43 43 43 43 42 42 42 42 42 42 42 43 43 43
25 22 23 26 30 33 30 24 21 19 17 15 14 15 15 16 19 16 10 12 17 17 17 14 7 9 21 25 22 21 20 17 15 15 16 16 17 17 18 19 22 25 28 31 35 37 39 41 43 46 47 48 48 48 46 46 46 46 46 45 45 44 44 44 43 43 42 42 41 41 41 41 40 41 41 41 42 42 41 41 41 40 41 41 41 42
26 23 23 25 28 32 33 31 29 26 23 23 23 24 24 24 26 25 20 17 15 17 19 12 4 10 18 17 16 17 18 17 17 19 21 23 25 27 28 32 34 35 38 40 42 44 45 46 46 46 45 43 43 42 42 42 42 42 41 41 40 40 40 40 40 40 40 39 38 38 38 38 38 38 39 39 40 41 41 41 41 41 42 42 42 42
23 20 17 13 12 17 22 23 21 20 21 22 25 27 28 28 26 23 21 18 11 14 18 10 7 15 17 15 19 21 21 23 24 26 30 33 35 37 38 39 40 42 45 46 47 47 47 46 44 42 41 40 41 41 41 40 40 38 38 37 37 37 36 36 36 36 36 35 35 36 36 36 36 37 37 37 38 40 41 42 43 43 44 44 45 45
23 20 18 13 7 7 12 13 10 10 11 14 19 23 24 25 23 19 19 16 8 8 12 11 13 19 20 20 25 27 26 30 32 34 38 41 42 43 42 43 45 47 49 48 48 47 45 43 42 40 40 40 40 40 39 38 37 36 35 34 33 33 32 32 32 32 33 33 34 35 35 35 35 36 36 37 38 39 40 42 43 44 45 46 46 46
25 25 26 24 21 21 23 23 19 16 14 16 19 22 25 25 24 23 21 18 15 14 18 26 29 28 30 33 36 37 36 38 40 41 43 44 44 45 45 46 48 49 49 47 46 45 43 40 39 38 39 40 40 40 38 36 34 33 32 31 30 31 31 31 31 31 32 33 34 35 35 35 35 36 37 37 38 39 39 40 41 42 43 44 45 46
26 28 29 28 28 30 30 29 27 26 25 26 27 29 31 30 30 32 30 27 25 20 23 37 40 35 39 45 45 44 41 39 40 41 42 43 44 45 46 47 48 48 47 46 44 42 39 38 38 39 40 41 40 39 36 34 32 30 29 28 29 30 30 30 31 31 32 33 34 35 36 36 36 36 37 37 37 37 38 38 39 39 41 41 43 44
27 29 31 30 28 30 30 29 29 30 29 30 32 34 36 37 37 39 38 38 37 30 31 43 44 40 45 48 46 44 41 40 40 40 42 44 45 46 47 46 45 45 43 40 38 38 37 38 40 41 41 40 38 36 34 32 30 29 29 29 30 30 30 30 31 32 33 33 34 35 36 36 36 36 36 36 37 37 38 38 39 39 40 41 43 44
27 28 28 27 28 30 30 29 28 28 29 31 34 35 38 40 40 39 40 43 42 39 41 45 43 44 47 47 45 44 42 42 42 42 44 45 45 44 42 41 42 41 40 38 38 39 40 41 41 41 40 38 36 35 33 32 32 32 32 32 32 32 32 32 33 33 34 34 34 35 35 36 36 36 37 37 38 38 39 40 41 42 43 44 46 47
25 24 21 21 23 24 26 25 22 23 26 30 35 38 40 41 40 41 43 44 42 42 44 43 42 45 45 41 40 39 38 40 41 42 42 41 39 39 39 41 43 41 40 41 41 42 42 41 41 39 37 36 35 34 34 34 34 35 35 35 35 35 35 36 36 36 36 35 35 35 36 36 37 38 38 39 40 41 41 42 44 45 47 49 51 52
23 21 20 18 16 22 27 24 21 25 27 30 38 44 44 43 42 43 42 41 40 42 42 40 40 41 38 33 33 34 35 37 37 38 38 38 39 40 41 42 41 40 41 42 41 41 40 40 39 37 35 34 33 33 34 34 35 35 36 37 37 38 38 39 39 39 38 38 38 38 38 39 40 40 41 42 43 44 46 47 48 50 52 54 56 58
23 22 23 19 16 25 32 25 21 20 16 23 40 45 42 40 40 39 38 37 36 36 37 38 37 34 31 29 31 32 32 33 34 36 38 40 41 40 40 40 39 39 40 39 39 39 37 35 34 32 32 31 32 33 34 35 36 37 38 39 39 39 39 39 39 39 39 39 40 40 41 41 42 42 43 45 46 48 49 51 53 55 57 59 61 64
26 25 26 23 19 24 29 24 16 9 11 28 44 42 37 36 34 33 34 34 33 32 33 34 33 30 29 30 31 32 33 34 36 38 39 39 38 38 39 39 38 37 36 35 35 33 31 29 28 28 30 31 32 34 35 37 39 40 40 40 39 39 39 39 39 39 40 41 41 42 42 43 43 44 45 47 49 51 52 54 57 58 61 64 66 68
31 30 29 26 22 22 25 20 8 8 24 40 42 35 32 32 31 31 33 34 34 33 32 31 29 29 29 31 32 32 34 35 36 37 38 38 38 38 37 35 33 33 33 31 30 27 26 25 26 28 30 32 34 35 37 39 41 40 40 40 39 40 40 40 41 41 42 43 43 43 44 44 45 46 48 50 51 53 55 57 60 62 65 67 70 73
36 34 30 27 22 18 18 15 10 16 30 37 34 31 32 31 31 31 32 33 33 32 31 29 27 26 26 27 27 28 29 31 33 34 35 34 33 33 32 31 31 31 30 28 26 26 26 27 29 32 33 35 36 38 40 41 40 40 40 40 41 41 42 42 43 44 44 45 45 45 45 46 47 48 50 52 53 55 57 60 62 65 68 71 74 77
36 34 30 26 22 19 18 22 25 26 29 34 38 36 33 32 32 29 29 31 31 30 30 27 24 24 24 23 25 27 29 31 32 30 28 27 27 28 29 29 29 28 28 27 27 29 30 32 34 36 37 39 40 41 42 41 40 40 41 42 43 43 44 45 45 45 46 46 46 46 47 47 49 50 52 53 55 57 59 62 65 67 71 75 78 77
32 31 29 25 22 22 21 19 17 14 18 32 38 33 28 27 24 21 23 28 30 29 28 26 24 24 24 24 28 29 28 28 28 25 24 25 26 27 28 29 29 29 30 30 31 33 35 37 39 40 42 43 43 42 41 40 40 41 42 43 44 45 45 46 46 47 47 47 47 47 48 49 50 52 53 55 57 59 61 64 67 70 75 78 76 72
25 25 25 24 22 24 23 16 10 11 21 32 33 28 26 25 21 18 18 25 32 31 27 27 26 25 25 26 27 26 23 25 28 26 25 27 28 29 30 31 31 32 33 34 35 37 39 40 42 42 42 41 40 39 38 39 40 41 43 44 45 46 46 47 47 47 47 47 47 48 49 50 51 53 55 56 58 61 64 66 69 74 76 74 70 68
23 22 23 25 28 30 30 23 20 23 29 30 26 25 27 25 22 17 12 19 31 31 27 28 28 27 27 26 25 25 26 29 32 31 29 31 32 33 34 34 35 36 37 38 39 40 41 42 42 42 40 39 38 38 38 39 41 42 43 45 45 46 47 47 47 47 47 47 47 48 50 51 52 54 56 58 60 63 65 68 73 75 73 68 66 67
23 23 23 29 33 35 33 29 26 30 34 32 28 29 29 26 23 21 20 24 29 28 27 30 29 28 29 27 27 29 32 34 36 34 32 33 35 36 37 37 38 39 39 39 39 40 40 40 40 40 39 38 38 38 39 40 41 42 43 44 45 46 46 46 46 46 46 47 47 49 50 51 53 55 57 59 62 64 67 71 74 72 67 65 66 69
22 21 23 31 34 35 36 32 27 29 35 34 29 28 27 25 24 25 27 27 26 27 29 30 29 30 29 29 30 34 36 36 35 34 34 35 37 38 39 38 38 38 38 38 38 38 38 38 39 39 38 38 38 39 40 41 42 43 44 44 45 45 45 45 46 45 45 46 47 49 50 52 54 56 58 61 64 66 69 73 71 66 64 65 67 70
19 18 21 28 30 30 31 27 19 21 29 30 25 23 24 25 26 27 27 26 27 30 30 29 30 31 31 32 35 35 35 35 34 34 36 37 38 39 39 39 38 38 38 38 38 38 37 37 37 38 38 38 39 41 42 43 44 45 45 46 46 46 46 46 45 45 45 46 47 49 51 53 55 57 59 62 64 68 71 70 65 62 63 65 68 71
20 22 24 28 27 25 27 25 20 22 26 25 21 20 21 23 27 28 28 29 30 30 30 31 33 33 33 35 34 32 32 33 34 35 36 37 38 38 38 38 38 38 38 37 37 37 37 37 38 38 39 40 41 42 44 45 46 47 47 47 47 46 46 45 45 45 45 46 48 49 51 53 55 57 60 63 65 69 70 65 61 61 63 66 69 72
23 26 29 31 32 30 30 29 26 24 24 22 21 22 23 26 29 29 30 31 29 28 30 31 31 31 32 32 31 31 32 33 34 35 35 37 37 37 37 38 38 38 39 38 38 38 38 38 39 39 40 42 43 44 45 46 48 48 48 47 47 46 45 44 44 45 45 47 48 50 52 54 55 58 61 63 67 68 65 61 59 61 64 67 70 73
28 30 30 32 36 35 33 33 32 31 30 29 28 28 29 29 29 27 26 27 26 26 28 28 28 29 29 29 30 31 33 34 34 35 36 37 37 37 37 38 39 39 40 40 40 40 39 39 40 41 42 44 45 46 47 48 49 49 48 47 46 45 44 44 44 44 45 47 49 51 53 54 56 58 61 64 66 64 60 58 59 61 65 68 70 73
33 33 33 37 40 36 34 37 38 36 35 35 33 33 32 30 27 24 23 25 25 26 27 27 27 28 28 29 30 31 32 33 34 35 37 37 37 37 37 38 39 40 40 41 41 41 41 41 42 43 45 46 47 47 48 49 49 49 48 46 45 44 43 43 43 44 46 48 50 51 53 54 56 59 61 64 63 59 56 57 59 61 65 68 69 73
34 34 36 39 39 37 37 40 39 38 38 38 36 35 32 29 26 24 24 26 25 25 27 28 29 29 29 30 31 32 33 34 35 36 38 38 40 40 39 39 39 40 40 40 41 41 42 44 45 46 47 48 49 49 50 50 49 48 47 45 44 43 42 42 43 44 46 48 50 51 53 55 57 59 62 63 59 55 55 56 58 61 65 66 68 72
34 36 39 39 37 38 40 39 39 40 40 37 35 34 31 28 27 27 28 29 28 28 29 29 30 31 31 32 33 34 36 36 36 37 39 41 43 42 40 39 40 39 40 40 40 42 43 45 46 47 48 49 50 50 50 50 48 46 45 43 42 42 41 42 43 45 46 48 50 51 53 55 57 60 62 60 55 53 54 56 58 62 64 64 67 70
37 41 42 39 39 41 40 37 36 38 38 36 35 34 32 30 31 33 34 33 32 32 32 31 31 32 33 35 36 37 38 37 37 38 41 43 43 41 40 40 40 40 40 40 41 42 43 44 45 46 47 48 49 49 49 48 45 43 42 41 41 40 40 41 43 45 46 48 50 51 53 56 58 60 59 56 53 53 54 55 57 60 61 62 65 65
39 42 41 40 42 42 40 37 36 38 40 39 36 34 32 32 34 36 36 36 35 35 35 34 34 34 35 36 38 38 39 39 39 40 43 43 41 40 40 40 40 39 39 40 41 42 42 43 44 44 45 45 46 46 46 43 41 40 40 39 39 39 39 41 43 45 46 48 49 51 54 56 58 58 56 52 52 53 55 55 57 58 58 60 63 61
Wind_Direction
258 260 263 267 274 280 284 285 284 285 283 276 278 279 277 275 274 279 288 294 293 288 287 289 288 290 291 300 313 321 313 296 290 292 291 283 271 263 267 287 306 311 313 317 315 311 309 301 293 294 291 299 310 315 318 313 308 308 311 316 318 318 316 313 309 302 294 288 285 284 284 284 282 280 278 276 275 275 274 273 271 270 268 266 264 262
264 263 268 276 283 286 284 281 278 276 272 269 273 276 273 270 271 277 282 287 286 281 282 284 283 285 290 304 317 313 292 281 277 293 300 290 276 268 275 292 304 304 308 315 312 304 299 292 295 303 304 316 326 331 339 337 331 325 319 318 316 315 313 310 306 302 297 291 286 282 280 281 281 281 280 279 280 279 278 277 275 274 272 270 268 266
266 268 275 282 286 284 277 273 273 272 266 259 261 270 272 269 274 280 282 282 276 270 277 279 279 283 291 306 315 276 271 273 270 290 303 296 287 279 283 293 297 298 306 312 303 291 286 284 291 298 307 321 333 343 349 349 345 341 337 334 330 326 319 314 308 302 298 293 288 283 279 276 275 276 278 280 281 281 280 278 277 276 275 273 271 269
267 274 284 285 280 278 276 274 273 269 260 253 255 264 269 270 277 283 285 285 275 270 276 279 282 283 288 302 291 250 264 272 276 291 294 289 284 282 285 289 290 294 305 307 291 272 268 269 277 286 304 321 340 349 349 347 344 340 338 336 334 330 322 316 312 308 304 299 293 287 282 278 275 273 272 273 275 276 277 277 277 276 276 275 274 272
272 279 284 280 274 269 271 275 272 266 259 256 257 261 268 274 278 280 284 284 277 276 279 283 285 282 286 299 269 242 262 274 283 294 294 283 274 273 277 280 284 291 301 298 276 259 256 257 270 287 310 324 334 338 338 339 338 336 335 333 331 328 322 317 315 313 310 307 302 295 289 284 280 278 274 272 271 272 273 275 275 275 274 274 274 274
276 283 281 276 270 257 259 268 269 263 258 260 262 263 269 274 271 272 278 278 277 282 284 287 290 283 282 281 255 254 271 279 283 287 284 277 273 269 268 271 277 287 294 283 256 250 253 260 275 292 308 317 322 326 330 333 334 334 332 330 329 325 321 318 317 316 313 310 307 302 298 293 288 285 282 278 276 274 274 275 276 275 275 274 274 274
274 277 272 271 269 258 255 260 264 262 259 261 263 266 270 271 265 264 269 269 273 282 283 277 281 285 276 261 265 279 281 279 280 277 269 267 269 268 265 267 272 281 284 270 250 244 245 257 273 288 299 309 318 325 329 330 331 331 329 327 324 320 316 315 314 313 312 310 307 302 299 297 295 292 290 287 285 283 282 282 281 280 279 279 278 277
270 269 266 267 268 262 256 255 261 258 256 259 264 269 267 268 265 262 265 267 274 282 279 270 270 277 273 269 285 294 278 271 272 267 261 259 262 265 264 265 269 273 270 258 250 246 245 257 267 280 294 307 319 327 329 329 328 327 325 322 317 313 309 306 306 307 308 307 304 300 298 297 297 297 297 295 293 294 295 297 297 295 293 291 289 288
266 263 261 262 259 257 254 253 260 254 253 259 268 269 264 265 264 263 269 272 280 286 278 272 266 261 271 284 305 299 261 257 261 259 257 256 257 259 260 262 266 267 260 250 248 247 252 262 268 279 294 308 319 325 325 326 326 324 322 316 310 305 300 298 299 300 303 303 300 297 295 295 296 298 301 303 303 303 305 307 310 310 310 309 307 306
254 251 250 248 246 250 254 255 257 255 257 262 268 270 266 265 263 265 271 272 279 280 267 268 256 237 277 293 303 290 255 255 257 256 256 255 255 255 255 257 260 262 257 248 245 246 252 262 271 283 296 308 316 320 322 323 324 321 316 310 304 299 296 296 298 297 298 298 294 292 292 292 294 297 300 304 306 307 307 307 308 309 310 311 312 313
250 247 243 244 247 253 257 255 254 255 258 261 264 268 267 265 264 262 263 265 277 271 262 270 257 236 271 305 155 138 286 276 267 261 257 256 254 252 253 254 254 256 254 248 246 249 256 266 277 290 299 306 311 314 318 320 320 317 312 307 303 301 300 300 300 300 299 296 291 288 289 290 292 294 297 300 303 304 305 305 305 305 304 305 305 307
256 250 247 250 252 253 255 254 254 251 250 255 260 264 266 268 265 257 253 248 237 260 267 278 257 231 229 228 222 251 281 287 282 272 266 262 256 254 257 257 254 252 252 250 248 254 265 277 287 296 302 304 307 310 312 314 314 314 311 308 305 304 304 303 304 304 303 301 296 291 289 290 291 292 294 296 298 300 302 303 303 304 304 303 303 302
261 254 249 247 246 249 250 247 248 247 246 251 254 254 255 271 271 239 230 209 217 251 264 274 258 226 232 248 258 262 269 276 275 273 273 273 269 266 266 263 256 251 249 249 251 260 272 283 290 296 300 302 302 305 308 310 310 309 308 306 302 300 299 298 298 299 299 298 296 294 293 292 292 293 293 295 296 298 299 301 302 303 304 304 303 302
270 266 260 256 257 256 250 247 253 254 252 252 249 242 228 196 160 238 241 233 246 254 246 246 259 242 243 256 259 256 258 260 266 277 283 280 276 272 267 262 255 249 248 250 255 264 274 283 289 292 295 296 298 301 303 305 307 307 305 302 299 296 295 293 292 292 293 294 294 295 298 299 299 298 297 297 297 297 298 299 300 301 302 302 302 302
267 271 268 262 261 260 260 262 260 254 249 245 242 237 229 224 222 229 234 215 239 251 228 233 251 245 238 242 243 246 249 256 272 285 287 281 273 268 265 261 254 249 249 253 260 270 281 287 290 292 293 295 295 294 293 295 300 302 301 300 298 296 294 293 292 291 290 290 292 295 300 305 307 307 307 306 304 302 301 300 300 300 300 300 299 299
257 266 270 266 265 271 273 263 246 241 242 239 230 225 232 242 244 246 257 258 259 277 253 249 254 259 262 266 264 263 266 271 280 285 283 277 268 263 260 256 252 250 253 263 274 282 288 290 291 292 293 293 290 287 287 290 293 295 295 295 294 293 293 292 291 290 289 288 290 294 300 305 308 310 311 312 311 310 307 304 302 300 300 299 298 297
255 263 271 274 274 271 265 246 231 234 239 236 223 219 231 246 251 252 263 264 259 262 258 255 259 263 267 271 268 267 272 277 279 280 279 272 263 257 252 251 252 258 269 279 284 288 290 291 291 290 290 288 285 284 285 286 287 287 288 288 289 289 288 288 288 289 290 292 293 296 300 303 305 306 305 306 308 308 308 307 305 302 300 298 296 295
255 263 271 274 272 260 252 240 228 227 230 232 229 232 240 247 248 246 253 263 250 245 255 255 261 264 260 259 263 266 276 283 283 280 275 268 263 258 255 257 264 274 281 284 285 288 290 289 288 285 283 282 281 281 280 280 281 282 284 286 288 288 288 289 290 291 293 296 297 298 300 301 301 300 299 299 301 302 304 304 304 303 300 297 295 293
252 262 269 269 264 253 246 242 234 228 233 239 242 247 250 249 248 240 232 248 251 256 264 247 252 259 257 256 264 268 272 280 284 280 275 275 275 272 272 275 279 281 283 283 284 286 286 284 283 282 281 281 281 281 281 280 281 283 285 287 289 290 291 293 294 294 295 297 299 299 300 300 299 298 297 296 296 296 297 298 299 300 299 297 294 292
248 254 261 261 256 248 245 245 244 235 237 246 250 253 255 256 257 251 247 250 244 251 269 249 240 252 257 262 268 270 273 280 283 279 278 287 289 285 284 282 279 279 278 279 282 283 281 281 281 282 283 283 284 284 285 286 287 289 290 291 292 294 295 297 298 298 298 299 300 299 299 298 298 297 296 295 294 293 292 292 292 294 295 296 295 292
247 243 245 253 252 245 241 244 246 240 238 242 245 250 255 256 258 257 255 251 245 241 257 254 250 254 262 271 276 276 281 284 281 278 279 284 287 286 283 279 276 275 276 277 280 281 282 284 285 285 285 285 287 289 291 293 294 295 296 297 298 298 299 299 300 300 300 299 299 298 297 296 295 294 293 293 292 291 290 289 288 289 290 292 294 294
246 239 238 245 247 246 245 247 251 253 250 246 242 240 243 252 260 260 256 252 249 244 241 250 261 261 265 272 276 279 282 281 276 274 278 282 284 280 275 270 269 271 275 280 283 285 285 286 287 287 288 290 292 293 295 296 297 298 299 300 300 301 300 300 300 299 298 297 296 295 294 293 292 291 290 290 290 290 290 289 289 288 288 288 290 291
248 242 239 241 244 247 250 252 255 256 251 245 244 243 242 251 259 257 252 256 251 245 251 259 262 258 263 267 272 277 278 277 277 279 282 284 282 279 277 276 278 280 283 285 287 288 289 289 291 293 294 294 295 296 297 297 298 299 299 299 299 299 299 299 298 298 297 296 295 293 291 289 288 287 287 287 287 289 290 290 290 290 289 288 288 288
246 240 239 243 248 251 252 255 258 261 258 252 251 253 251 253 259 258 254 255 255 252 255 263 264 254 257 261 266 273 276 281 288 290 290 290 290 290 290 289 290 290 290 292 294 296 298 300 301 301 300 300 300 301 302 302 301 301 300 300 299 298 298 297 296 296 296 296 295 294 292 291 289 288 287 287 287 288 289 289 290 290 290 290 289 289
243 237 234 238 255 262 260 259 260 259 256 251 250 250 249 250 252 252 253 257 258 252 249 248 251 255 257 261 264 268 276 283 287 288 290 291 292 292 292 292 293 294 296 299 301 303 305 306 306 305 304 304 305 307 308 307 306 305 304 303 301 299 298 297 296 295 295 295 295 296 296 295 295 295 294 294 293 292 291 291 291 291 291 291 291 291
248 246 241 235 234 249 257 261 257 240 229 231 237 239 241 243 240 247 261 265 259 256 253 248 254 260 261 264 266 269 274 278 281 283 285 287 288 289 290 292 295 297 299 301 303 304 305 305 304 303 302 303 305 307 308 307 306 305 304 302 301 300 299 299 299 298 298 298 298 299 299 299 299 299 299 299 298 298 297 296 295 294 294 293 293 293
250 251 251 249 246 249 257 263 264 258 249 246 245 242 242 240 238 253 269 265 262 273 270 261 263 269 269 269 273 276 277 278 280 281 283 284 285 287 289 292 295 297 299 301 303 303 303 302 300 299 299 302 304 306 306 306 304 303 302 301 301 301 301 301 301 300 300 300 300 301 301 301 301 301 301 301 300 299 298 297 297 296 295 295 294 294
249 251 253 254 254 257 261 262 261 262 262 262 259 255 253 248 246 258 268 270 271 274 269 268 271 274 273 275 278 280 280 280 281 281 283 283 284 286 289 292 294 296 298 299 300 299 297 297 296 297 299 302 304 304 303 301 299 298 298 298 299 299 299 298 298 298 298 299 299 300 300 301 301 301 301 300 300 299 299 298 298 298 298 298 298 297
251 253 255 255 255 258 259 259 259 260 262 264 264 263 263 260 257 263 269 272 272 268 267 274 275 274 276 280 281 282 283 284 282 282 282 282 283 285 287 289 290 293 294 294 293 292 292 293 294 296 298 299 300 299 297 295 294 295 296 297 297 297 297 298 298 298 298 298 298 298 298 299 299 299 299 298 298 298 298 299 300 300 301 302 301 301
251 255 258 257 256 258 259 258 258 259 261 264 265 266 268 267 267 270 271 271 271 267 268 273 272 272 277 282 282 283 284 283 281 281 281 282 283 283 284 285 288 289 288 286 286 288 290 292 293 294 295 294 293 292 291 291 292 294 296 297 297 298 298 298 298 297 297 297 297 297 297 296 296 296 296 296 296 297 298 298 299 300 301 301 301 302
248 254 257 255 254 257 259 257 256 259 264 268 270 270 270 270 270 270 271 272 271 269 271 272 268 270 278 282 283 284 282 280 280 281 280 279 278 278 280 284 286 286 285 285 287 289 290 291 292 292 291 290 289 289 290 291 293 296 297 297 298 299 300 300 299 299 300 299 299 298 297 296 296 297 297 297 297 298 299 299 299 300 300 301 302 302
246 247 246 245 246 256 263 265 264 266 269 270 270 270 269 269 271 272 273 275 274 273 275 273 269 274 283 286 284 281 279 278 278 277 276 274 274 277 281 284 286 286 287 289 290 290 290 290 291 291 291 291 291 292 293 295 297 299 300 300 301 302 302 302 302 302 303 302 301 300 299 299 299 299 299 299 300 300 301 301 301 302 303 303 303 304
247 244 245 246 251 264 270 272 272 274 275 267 266 269 273 274 275 277 276 275 275 274 273 272 275 283 289 285 281 278 276 274 273 273 273 275 279 283 285 288 289 289 290 290 290 291 291 291 291 291 291 292 293 296 298 300 302 304 304 305 305 304 303 303 304 304 304 303 302 302 301 301 301 301 301 301 302 302 303 304 304 305 305 305 306 306
251 250 253 254 256 264 269 270 269 260 249 262 270 276 281 279 278 277 275 277 280 278 275 276 280 284 282 279 276 274 272 272 272 274 276 279 284 288 289 290 291 290 289 289 289 290 289 289 289 289 291 293 296 300 303 306 308 308 308 307 305 304 303 303 304 304 304 303 303 302 302 301 301 302 302 303 303 304 305 306 307 307 307 308 308 308
256 257 260 258 250 254 263 266 261 233 251 267 279 283 280 279 278 278 279 282 285 285 283 280 278 276 275 274 273 271 270 272 273 276 280 283 287 288 288 287 286 285 285 285 285 285 284 284 286 289 292 295 299 303 307 309 309 308 306 304 302 302 302 303 303 304 303 303 303 302 302 302 302 302 302 303 304 305 307 307 308 309 309 309 309 309
258 258 258 252 242 243 249 239 228 251 263 271 279 278 274 277 279 278 279 282 286 288 286 280 278 279 276 271 269 267 268 272 275 279 283 284 284 284 283 282 282 281 282 281 280 279 279 281 285 288 293 297 301 305 307 308 306 303 301 300 300 300 301 302 302 303 303 302 302 301 301 302 302 302 302 303 304 306 307 308 309 309 309 309 309 309
256 254 252 245 236 234 231 231 245 262 269 271 274 275 274 276 278 275 273 279 287 289 284 280 281 280 274 268 268 271 275 279 282 284 283 279 278 278 278 279 278 278 278 279 280 281 283 284 287 290 294 298 302 305 305 304 302 300 298 298 298 299 300 301 301 301 301 301 300 301 301 301 301 301 302 303 305 306 307 308 309 309 310 310 310 309
251 249 247 240 234 234 234 240 254 261 264 271 277 280 280 278 277 271 267 276 285 286 280 279 280 276 273 276 279 283 286 283 282 285 282 276 275 275 275 275 275 276 279 280 281 283 285 286 288 291 295 298 301 302 301 300 298 297 296 296 297 298 299 299 299 299 299 299 300 300 301 301 301 302 303 304 305 306 308 309 309 310 310 310 310 308
240 240 240 237 235 235 233 234 237 236 256 271 277 280 279 276 277 277 272 275 281 284 280 278 278 277 281 287 288 287 282 277 280 287 284 278 277 276 274 275 277 278 280 280 282 284 287 289 292 295 297 299 300 299 297 296 295 294 294 295 296 297 297 298 298 298 298 299 299 300 300 301 302 303 304 305 306 307 309 309 310 311 311 310 309 308
225 223 224 228 234 235 233 235 240 244 256 266 268 267 270 272 275 279 274 276 284 289 287 283 283 286 289 291 289 282 278 279 285 289 285 280 279 278 278 280 281 282 284 286 288 291 293 296 298 299 300 300 299 297 295 294 293 293 293 294 295 296 296 296 297 297 297 298 299 300 301 302 302 304 305 306 307 308 310 310 311 311 310 309 309 310
219 214 216 224 232 234 233 236 243 249 256 261 259 262 268 269 266 263 268 281 288 289 286 285 288 290 290 290 286 283 283 287 290 290 285 281 281 281 283 285 286 288 290 292 294 296 298 299 299 299 299 298 297 296 295 294 294 294 294 294 294 295 296 296 296 296 296 298 299 300 301 302 303 304 305 307 308 309 310 311 312 311 310 311 312 313
217 212 217 225 231 234 236 240 245 253 261 265 262 261 263 259 256 265 279 288 289 287 287 289 289 289 289 288 286 286 288 290 290 289 286 285 286 287 288 289 290 292 294 295 296 298 298 298 298 297 296 296 295 295 296 296 296 295 295 295 295 296 296 295 295 296 296 298 299 300 302 303 304 305 306 308 309 310 312 313 312 311 312 313 315 315
229 221 224 230 232 234 236 238 241 255 268 271 264 256 255 259 269 282 287 286 287 289 290 288 287 288 287 286 286 287 288 287 286 286 287 288 289 289 290 291 292 293 294 296 297 297 297 297 296 295 294 294 294 294 296 296 296 296 296 296 296 296 296 295 295 296 297 298 300 301 302 303 304 306 308 309 311 312 313 313 312 313 314 316 317 316
231 232 240 246 245 236 232 237 248 267 278 277 267 261 265 274 283 287 284 284 289 290 286 284 285 286 285 284 285 285 285 285 285 285 286 286 287 288 289 291 292 293 294 295 295 296 296 295 294 293 293 292 292 293 295 295 295 295 295 296 296 295 295 295 296 296 297 299 300 301 302 303 305 307 309 311 312 313 314 313 313 314 317 318 318 317
241 250 259 263 261 255 252 258 267 275 278 274 269 273 279 281 282 281 282 285 286 283 282 282 282 280 279 280 281 281 282 284 284 284 284 283 284 286 288 289 292 293 294 295 295 295 295 294 293 292 291 291 292 293 294 294 293 294 295 295 295 295 295 296 296 297 298 300 301 302 303 304 307 309 310 312 314 314 314 313 314 317 319 320 319 318
256 261 263 264 265 264 263 265 267 268 271 274 276 279 281 281 280 279 280 282 282 280 280 279 277 278 278 279 281 283 284 285 285 284 283 282 283 284 286 289 291 292 293 294 295 295 295 294 292 291 290 290 291 292 292 292 293 294 295 295 296 296 296 296 296 298 300 301 301 302 304 306 308 310 312 314 315 315 314 314 317 320 321 321 320 320
264 265 262 262 265 265 264 268 269 270 275 279 278 278 281 284 283 279 278 282 283 280 277 275 276 280 282 283 286 287 288 288 287 286 285 284 283 284 286 289 290 291 292 293 294 295 295 293 292 292 291 291 291 291 291 292 293 294 295 295 296 296 296 296 297 299 300 301 302 304 306 308 310 311 314 315 315 314 314 316 320 322 323 322 321 321
271 273 269 267 267 265 266 273 277 278 282 284 282 282 286 288 285 281 282 286 286 281 276 275 278 283 286 289 292 292 292 291 289 286 285 283 282 284 287 289 290 291 292 294 295 295 295 294 293 293 293 292 291 291 291 292 293 295 295 295 295 295 295 296 298 300 301 302 304 307 308 310 312 314 315 316 315 314 315 319 322 323 323 322 322 323
273 272 270 269 270 270 272 279 283 282 283 287 289 289 289 286 282 283 286 288 287 284 282 282 284 287 289 291 292 293 293 291 287 284 282 280 281 284 287 288 289 291 293 295 296 295 294 294 294 294 294 293 293 292 292 293 294 295 295 295 294 294 295 297 299 301 303 305 307 309 311 312 314 316 316 316 315 314 317 321 324 324 323 323 324 324
270 270 270 267 266 271 281 291 291 284 284 291 295 293 290 287 285 286 287 287 285 285 286 288 288 288 289 290 292 292 291 289 285 281 278 279 281 284 286 287 289 291 293 295 295 295 295 295 295 295 295 295 294 293 293 293 294 295 294 293 292 294 296 299 301 302 304 307 309 311 313 314 316 317 317 315 314 315 318 323 324 324 324 325 325 325
274 275 275 270 270 278 289 295 292 285 285 292 296 294 290 289 288 287 287 286 285 285 286 288 288 287 288 289 289 289 287 285 282 278 278 279 281 283 285 286 288 291 293 295 295 295 296 296 296 296 296 296 295 294 294 294 293 293 292 291 293 295 298 301 302 304 307 310 311 313 314 316 317 317 316 314 314 316 320 323 324 324 326 326 325 326
Height
3144 3143 3142 3143 3145 3147 3147 3146 3144 3144 3144 3143 3143 3142 3141 3141 3140 3140 3140 3141 3141 3138 3136 3137 3135 3135 3136 3136 3135 3135 3134 3133 3132 3131 3129 3128 3127 3127 3128 3127 3127 3126 3126 3125 3124 3123 3123 3123 3122 3121 3121 3120 3120 3119 3119 3118 3118 3118 3117 3117 3116 3116 3116 3116 3116 3116 3115 3115 3114 3113 3113 3113 3112 3112 3112 3112 3112 3112 3112 3112 3113 3113 3113 3112 3112 3113
3140 3139 3139 3141 3143 3143 3144 3143 3142 3141 3141 3140 3140 3139 3139 3138 3137 3137 3138 3138 3138 3135 3133 3134 3133 3133 3134 3134 3134 3133 3131 3130 3130 3129 3128 3127 3127 3126 3126 3126 3125 3124 3124 3123 3122 3122 3122 3122 3121 3121 3120 3120 3119 3119 3118 3118 3118 3117 3117 3116 3115 3115 3115 3115 3114 3114 3114 3113 3112 3112 3111 3111 3111 3110 3110 3109 3109 3109 3109 3109 3109 3109 3109 3109 3108 3108
3135 3134 3138 3140 3139 3139 3140 3140 3140 3138 3138 3138 3138 3137 3136 3137 3136 3135 3136 3136 3135 3133 3132 3132 3131 3131 3132 3132 3132 3130 3127 3127 3128 3128 3128 3127 3126 3126 3125 3124 3122 3122 3121 3121 3120 3120 3120 3120 3120 3120 3120 3120 3119 3118 3117 3117 3117 3117 3116 3115 3115 3114 3114 3113 3113 3113 3112 3111 3110 3110 3109 3109 3109 3108 3108 3107 3107 3106 3105 3105 3105 3105 3105 3105 3105 3104
3131 3131 3136 3137 3136 3136 3136 3137 3137 3136 3135 3135 3136 3135 3134 3135 3135 3133 3134 3133 3132 3131 3130 3129 3128 3128 3129 3130 3129 3127 3124 3124 3125 3126 3127 3126 3125 3124 3123 3122 3120 3119 3119 3119 3119 3119 3118 3118 3118 3118 3119 3118 3118 3117 3116 3116 3115 3115 3115 3114 3114 3113 3113 3112 3112 3111 3110 3109 3108 3108 3107 3106 3106 3106 3105 3104 3104 3103 3102 3102 3101 3101 3101 3100 3100 3100
3126 3130 3133 3133 3133 3133 3133 3134 3134 3133 3133 3133 3133 3133 3132 3133 3133 3132 3132 3131 3130 3129 3128 3128 3125 3123 3125 3126 3126 3125 3123 3121 3121 3123 3124 3123 3122 3122 3121 3120 3118 3117 3118 3118 3118 3117 3117 3116 3116 3116 3116 3115 3115 3115 3114 3114 3113 3113 3112 3112 3112 3111 3111 3110 3109 3108 3107 3106 3106 3105 3105 3104 3104 3103 3102 3101 3101 3100 3099 3098 3098 3098 3097 3097 3096 3095
3123 3127 3129 3129 3130 3130 3130 3130 3130 3130 3131 3130 3130 3130 3130 3130 3130 3130 3130 3129 3128 3127 3126 3127 3124 3119 3120 3123 3123 3123 3121 3118 3118 3120 3121 3120 3119 3119 3118 3117 3116 3116 3116 3116 3116 3115 3115 3115 3115 3114 3113 3113 3112 3112 3112 3112 3111 3111 3110 3109 3109 3109 3108 3108 3107 3106 3105 3104 3103 3103 3103 3102 3102 3101 3100 3099 3098 3097 3096 3095 3094 3094 3093 3093 3092 3092
3121 3124 3125 3126 3127 3128 3128 3127 3128 3129 3129 3128 3128 3128 3129 3128 3128 3128 3129 3128 3126 3125 3124 3125 3125 3119 3115 3118 3121 3121 3119 3116 3114 3116 3117 3117 3116 3115 3115 3114 3114 3114 3113 3113 3113 3113 3113 3113 3113 3112 3111 3111 3110 3109 3109 3109 3109 3108 3108 3107 3107 3107 3106 3106 3105 3104 3103 3102 3102 3102 3101 3101 3100 3099 3099 3098 3097 3095 3094 3093 3092 3091 3090 3089 3089 3088
3119 3122 3123 3123 3125 3125 3125 3125 3126 3127 3127 3126 3126 3127 3127 3126 3127 3127 3127 3127 3125 3124 3122 3122 3125 3119 3110 3111 3116 3116 3115 3113 3110 3111 3112 3113 3113 3112 3111 3111 3111 3111 3111 3112 3111 3111 3111 3110 3110 3110 3109 3108 3108 3107 3107 3107 3107 3106 3106 3106 3105 3105 3105 3105 3104 3103 3101 3100 3100 3101 3100 3100 3099 3098 3097 3096 3096 3094 3093 3092 3090 3089 3088 3087 3086 3085
3119 3120 3121 3122 3123 3123 3123 3124 3125 3125 3125 3124 3124 3125 3125 3126 3126 3126 3125 3125 3124 3122 3118 3118 3123 3119 3107 3105 3110 3110 3109 3108 3106 3107 3108 3109 3109 3109 3109 3109 3109 3109 3109 3109 3109 3109 3109 3108 3108 3107 3107 3106 3106 3105 3105 3105 3105 3104 3104 3104 3104 3104 3103 3103 3103 3101 3099 3098 3099 3099 3099 3098 3097 3096 3096 3095 3094 3093 3092 3091 3090 3088 3087 3086 3084 3083
3119 3119 3120 3120 3120 3121 3122 3123 3123 3123 3123 3122 3123 3123 3124 3124 3124 3124 3123 3122 3123 3119 3113 3113 3118 3115 3106 3103 3105 3105 3105 3105 3103 3104 3105 3105 3106 3107 3107 3107 3107 3107 3107 3107 3107 3106 3106 3105 3105 3105 3104 3104 3104 3103 3103 3103 3103 3102 3102 3102 3102 3102 3101 3102 3101 3099 3097 3096 3096 3097 3097 3097 3096 3095 3094 3093 3092 3092 3091 3090 3089 3088 3087 3085 3084 3083
3117 3117 3118 3117 3118 3119 3120 3121 3121 3121 3121 3121 3121 3121 3122 3122 3122 3122 3121 3120 3122 3115 3109 3110 3113 3112 3108 3102 3102 3103 3102 3103 3102 3102 3103 3103 3104 3104 3105 3106 3105 3105 3105 3105 3104 3104 3103 3103 3102 3102 3102 3101 3101 3100 3100 3100 3100 3101 3100 3100 3099 3099 3099 3100 3099 3097 3095 3093 3094 3094 3094 3094 3094 3093 3092 3091 3090 3089 3089 3088 3087 3086 3085 3084 3083 3082
3115 3115 3115 3115 3116 3117 3118 3119 3119 3119 3119 3119 3120 3120 3120 3120 3119 3120 3119 3120 3120 3112 3106 3108 3109 3110 3107 3101 3099 3100 3100 3101 3101 3101 3102 3102 3102 3103 3104 3104 3104 3103 3103 3102 3102 3102 3101 3100 3100 3099 3099 3098 3098 3097 3097 3097 3098 3098 3098 3098 3097 3096 3096 3096 3095 3093 3091 3090 3090 3091 3092 3091 3091 3090 3089 3088 3087 3086 3086 3085 3084 3083 3082 3081 3080 3079
3112 3112 3113 3114 3114 3115 3115 3116 3116 3117 3117 3117 3118 3118 3119 3119 3118 3118 3118 3117 3114 3108 3106 3107 3106 3105 3102 3097 3098 3098 3098 3099 3099 3100 3100 3101 3101 3102 3103 3103 3102 3101 3101 3100 3100 3099 3099 3098 3097 3097 3096 3096 3095 3094 3093 3094 3095 3095 3095 3095 3095 3094 3093 3092 3091 3089 3088 3086 3086 3087 3088 3088 3087 3086 3086 3085 3084 3083 3082 3081 3081 3080 3079 3078 3077 3076
3110 3110 3111 3111 3111 3112 3112 3113 3113 3113 3114 3114 3114 3115 3117 3118 3118 3116 3114 3113 3109 3105 3105 3105 3104 3101 3096 3095 3095 3095 3095 3097 3097 3098 3099 3100 3101 3101 3101 3100 3100 3099 3099 3098 3098 3097 3096 3096 3095 3094 3093 3093 3092 3091 3090 3090 3091 3091 3092 3092 3092 3091 3090 3089 3087 3086 3083 3082 3082 3082 3083 3083 3083 3082 3082 3081 3080 3079 3078 3078 3077 3076 3075 3075 3074 3073
3109 3107 3107 3108 3108 3108 3109 3109 3110 3110 3111 3111 3111 3112 3112 3112 3113 3112 3109 3108 3106 3104 3104 3103 3101 3096 3093 3093 3093 3092 3093 3094 3095 3097 3097 3098 3099 3098 3098 3098 3097 3097 3097 3096 3096 3095 3094 3093 3092 3091 3090 3090 3089 3089 3088 3088 3088 3088 3088 3088 3088 3087 3086 3085 3084 3082 3080 3079 3078 3078 3078 3077 3077 3076 3076 3075 3075 3075 3074 3073 3073 3072 3071 3071 3070 3069
3106 3104 3104 3106 3106 3106 3107 3107 3107 3107 3108 3108 3108 3109 3109 3108 3109 3108 3106 3105 3104 3104 3102 3099 3097 3093 3091 3092 3091 3090 3091 3092 3093 3094 3094 3095 3095 3095 3095 3095 3095 3095 3094 3094 3093 3092 3091 3091 3090 3089 3088 3087 3087 3087 3087 3087 3087 3087 3086 3086 3085 3083 3082 3081 3079 3078 3077 3076 3076 3075 3074 3073 3071 3070 3069 3068 3068 3068 3068 3068 3068 3067 3067 3066 3065 3064
3104 3102 3102 3103 3104 3104 3104 3105 3105 3105 3106 3106 3105 3105 3105 3106 3106 3106 3105 3103 3103 3103 3098 3094 3093 3091 3091 3089 3087 3088 3089 3090 3091 3091 3092 3092 3092 3093 3093 3092 3092 3092 3092 3091 3090 3090 3089 3088 3087 3086 3086 3086 3086 3086 3085 3085 3086 3085 3084 3083 3082 3081 3080 3078 3076 3075 3074 3073 3073 3072 3070 3069 3068 3066 3065 3063 3062 3061 3061 3061 3060 3060 3060 3060 3060 3059
3101 3100 3100 3101 3101 3102 3102 3102 3103 3103 3103 3103 3103 3103 3104 3104 3104 3104 3104 3102 3102 3100 3095 3092 3091 3090 3088 3086 3084 3086 3088 3088 3089 3089 3089 3090 3090 3090 3090 3090 3090 3090 3089 3088 3087 3087 3086 3085 3085 3084 3084 3084 3083 3083 3083 3083 3083 3082 3081 3080 3079 3078 3076 3075 3073 3072 3070 3069 3068 3067 3066 3065 3064 3063 3062 3060 3059 3057 3056 3055 3054 3053 3053 3052 3052 3052
3099 3098 3098 3098 3098 3099 3100 3100 3100 3100 3101 3101 3101 3102 3102 3102 3102 3102 3102 3101 3099 3097 3092 3090 3088 3087 3085 3084 3083 3085 3087 3087 3087 3087 3088 3088 3088 3089 3088 3088 3088 3087 3086 3085 3084 3083 3082 3082 3082 3081 3081 3081 3080 3080 3080 3081 3080 3079 3078 3077 3075 3074 3072 3071 3069 3068 3067 3065 3064 3063 3062 3061 3060 3059 3058 3057 3055 3054 3052 3050 3049 3048 3047 3046 3045 3045
3097 3097 3096 3095 3096 3097 3097 3096 3097 3097 3098 3099 3099 3099 3100 3100 3099 3099 3098 3096 3095 3093 3091 3088 3086 3083 3082 3082 3083 3084 3085 3086 3086 3086 3086 3086 3086 3086 3086 3085 3084 3083 3082 3081 3081 3080 3079 3079 3079 3079 3078 3078 3078 3078 3077 3077 3076 3075 3074 3072 3071 3069 3068 3066 3065 3064 3062 3061 3060 3058 3057 3056 3055 3054 3053 3051 3050 3049 3047 3046 3044 3043 3041 3039 3039 3038
3095 3095 3093 3092 3093 3093 3093 3093 3094 3094 3095 3096 3096 3096 3096 3096 3096 3095 3093 3091 3091 3090 3089 3087 3083 3081 3081 3082 3082 3082 3084 3084 3084 3084 3084 3084 3084 3083 3083 3082 3081 3080 3079 3079 3078 3077 3077 3077 3076 3076 3076 3075 3075 3074 3073 3071 3070 3069 3067 3066 3065 3064 3062 3061 3059 3058 3057 3056 3055 3053 3052 3051 3049 3048 3047 3045 3044 3043 3041 3040 3039 3038 3036 3034 3032 3031
3091 3091 3090 3090 3089 3089 3089 3090 3091 3091 3092 3092 3093 3093 3093 3093 3093 3092 3089 3087 3087 3086 3085 3084 3080 3079 3080 3081 3080 3081 3081 3081 3081 3082 3081 3081 3081 3080 3079 3079 3078 3078 3077 3076 3076 3075 3074 3074 3073 3073 3072 3071 3070 3069 3067 3066 3064 3063 3061 3060 3058 3057 3056 3055 3054 3053 3051 3050 3049 3048 3047 3046 3044 3043 3041 3039 3038 3037 3036 3035 3034 3032 3031 3030 3028 3026
3088 3088 3087 3086 3085 3085 3086 3088 3088 3088 3089 3090 3089 3089 3090 3090 3090 3089 3086 3084 3084 3082 3081 3081 3078 3076 3078 3078 3078 3078 3078 3077 3078 3078 3078 3078 3078 3077 3077 3076 3076 3075 3075 3074 3073 3072 3071 3070 3069 3068 3067 3066 3064 3063 3062 3060 3059 3057 3056 3054 3053 3051 3050 3049 3048 3047 3046 3045 3044 3043 3042 3041 3039 3038 3036 3034 3033 3031 3030 3029 3028 3027 3026 3024 3023 3022
3085 3084 3083 3082 3081 3081 3082 3083 3083 3083 3085 3086 3086 3086 3086 3086 3085 3084 3083 3081 3081 3079 3078 3079 3076 3074 3075 3076 3076 3075 3074 3074 3075 3075 3075 3075 3074 3073 3073 3072 3071 3070 3069 3068 3067 3066 3065 3063 3062 3061 3059 3058 3057 3056 3055 3054 3052 3051 3050 3049 3048 3046 3045 3044 3043 3041 3040 3039 3038 3037 3036 3035 3033 3032 3031 3029 3028 3026 3025 3023 3022 3021 3019 3018 3017 3015
3081 3080 3079 3079 3079 3078 3078 3078 3078 3079 3080 3081 3082 3082 3081 3081 3081 3080 3079 3079 3077 3075 3076 3076 3072 3070 3072 3073 3073 3072 3071 3071 3072 3072 3071 3071 3070 3069 3068 3067 3066 3064 3063 3062 3061 3059 3058 3056 3055 3053 3052 3051 3049 3048 3048 3046 3046 3044 3044 3043 3042 3041 3040 3039 3038 3036 3035 3034 3033 3031 3030 3029 3028 3027 3025 3024 3023 3021 3020 3018 3016 3015 3013 3012 3010 3009
3077 3076 3075 3076 3076 3076 3074 3074 3075 3075 3076 3077 3078 3078 3078 3078 3077 3076 3076 3076 3074 3072 3073 3072 3068 3067 3069 3070 3070 3070 3070 3070 3070 3069 3068 3067 3066 3065 3063 3062 3060 3058 3057 3056 3055 3054 3053 3051 3050 3048 3047 3045 3044 3043 3042 3041 3040 3039 3038 3037 3036 3036 3034 3033 3032 3031 3030 3029 3027 3026 3025 3024 3023 3022 3020 3019 3018 3016 3015 3013 3011 3009 3007 3005 3004 3002
3073 3072 3071 3071 3071 3070 3070 3071 3072 3072 3073 3074 3074 3075 3075 3074 3074 3073 3072 3071 3071 3070 3068 3065 3064 3064 3065 3066 3066 3066 3067 3066 3066 3065 3064 3063 3062 3060 3059 3057 3055 3053 3052 3051 3050 3049 3048 3046 3045 3044 3042 3041 3040 3039 3037 3036 3035 3034 3033 3032 3031 3030 3029 3028 3027 3026 3025 3024 3022 3021 3020 3019 3017 3016 3015 3014 3012 3011 3009 3007 3006 3004 3002 3000 2998 2996
3068 3068 3067 3067 3067 3067 3067 3069 3070 3069 3069 3070 3070 3070 3070 3070 3069 3068 3066 3066 3068 3066 3061 3059 3061 3060 3060 3062 3062 3062 3062 3061 3061 3060 3059 3058 3057 3056 3054 3053 3051 3049 3048 3047 3046 3044 3043 3042 3040 3039 3038 3036 3035 3034 3033 3032 3031 3030 3029 3028 3027 3026 3025 3024 3023 3022 3020 3019 3018 3016 3015 3014 3012 3011 3009 3008 3006 3005 3003 3002 3000 2998 2997 2995 2993 2991
3065 3064 3063 3064 3064 3064 3065 3065 3066 3066 3065 3065 3065 3064 3064 3064 3063 3062 3061 3062 3063 3059 3055 3055 3058 3055 3054 3056 3057 3057 3058 3056 3055 3055 3054 3053 3052 3051 3050 3048 3047 3046 3045 3043 3042 3040 3039 3038 3036 3035 3033 3032 3031 3030 3029 3028 3027 3026 3026 3025 3024 3023 3021 3020 3019 3017 3016 3015 3014 3012 3010 3009 3007 3006 3004 3003 3001 2999 2997 2996 2994 2992 2991 2989 2987 2985
3061 3059 3060 3060 3059 3060 3061 3061 3061 3062 3061 3060 3059 3059 3058 3057 3057 3057 3057 3056 3056 3053 3051 3052 3052 3049 3050 3051 3052 3053 3053 3051 3050 3049 3048 3048 3047 3046 3045 3044 3043 3042 3040 3039 3038 3036 3035 3034 3032 3031 3029 3028 3027 3026 3025 3024 3023 3022 3021 3020 3019 3018 3017 3015 3014 3013 3011 3010 3009 3007 3005 3004 3002 3001 2999 2997 2995 2994 2992 2990 2988 2986 2984 2983 2981 2979
3057 3056 3056 3056 3055 3056 3057 3057 3058 3058 3057 3056 3054 3053 3051 3051 3051 3051 3050 3050 3050 3047 3046 3047 3046 3043 3046 3048 3048 3048 3047 3046 3045 3043 3042 3042 3041 3041 3040 3039 3038 3036 3035 3034 3033 3031 3030 3028 3027 3026 3024 3023 3022 3021 3020 3019 3018 3017 3016 3015 3014 3012 3011 3009 3008 3007 3005 3004 3002 3001 2999 2998 2996 2995 2993 2991 2989 2987 2985 2983 2982 2980 2977 2975 2973 2971
3053 3053 3053 3053 3052 3052 3052 3054 3054 3054 3054 3052 3048 3044 3044 3046 3045 3044 3044 3045 3044 3042 3041 3042 3040 3038 3042 3044 3043 3042 3041 3041 3040 3038 3037 3036 3035 3035 3035 3034 3032 3030 3029 3028 3026 3025 3024 3022 3021 3019 3018 3017 3016 3015 3014 3013 3012 3011 3009 3008 3007 3006 3004 3002 3001 3000 2998 2997 2995 2994 2992 2990 2989 2988 2986 2984 2982 2980 2978 2976 2974 2972 2969 2967 2965 2962
3049 3048 3049 3051 3049 3048 3050 3050 3049 3052 3051 3045 3038 3037 3040 3041 3040 3039 3039 3039 3039 3038 3037 3035 3034 3035 3038 3038 3037 3036 3036 3035 3035 3034 3032 3030 3029 3030 3029 3028 3026 3025 3024 3022 3020 3018 3017 3016 3015 3013 3012 3011 3010 3009 3008 3007 3006 3005 3003 3002 3001 2999 2998 2996 2995 2994 2992 2991 2989 2987 2985 2983 2981 2980 2978 2976 2974 2972 2970 2968 2966 2963 2960 2957 2955 2952
3044 3044 3046 3048 3046 3045 3046 3046 3047 3049 3044 3033 3030 3034 3036 3036 3035 3034 3033 3033 3034 3034 3032 3030 3030 3032 3032 3032 3032 3031 3031 3031 3030 3029 3027 3025 3025 3025 3024 3023 3021 3020 3018 3017 3015 3013 3012 3011 3010 3009 3008 3007 3006 3004 3003 3002 3001 2999 2998 2996 2995 2993 2992 2991 2990 2988 2987 2985 2983 2980 2979 2977 2975 2973 2971 2969 2967 2965 2963 2960 2957 2955 2952 2948 2946 2943
3040 3041 3042 3043 3043 3042 3042 3044 3045 3040 3030 3025 3029 3032 3030 3029 3029 3028 3027 3027 3028 3028 3027 3026 3027 3027 3027 3027 3027 3027 3026 3026 3025 3024 3022 3021 3020 3020 3019 3018 3017 3015 3013 3012 3011 3010 3009 3007 3006 3005 3004 3003 3002 3001 2999 2997 2996 2994 2993 2991 2990 2988 2987 2986 2984 2983 2981 2979 2977 2975 2973 2971 2969 2967 2965 2962 2960 2957 2955 2952 2949 2946 2943 2939 2936 2933
3036 3037 3037 3038 3039 3038 3038 3039 3035 3027 3022 3023 3026 3026 3025 3025 3025 3023 3022 3022 3023 3023 3021 3021 3022 3022 3022 3022 3022 3022 3021 3020 3020 3020 3018 3016 3016 3015 3014 3013 3012 3010 3009 3008 3007 3006 3006 3004 3003 3002 3001 2999 2998 2997 2995 2994 2992 2990 2989 2987 2985 2983 2982 2980 2979 2977 2975 2973 2971 2969 2967 2965 2963 2961 2958 2956 2953 2950 2948 2944 2941 2938 2934 2930 2927 2923
3031 3032 3032 3033 3034 3033 3032 3030 3025 3021 3020 3020 3020 3021 3021 3021 3020 3019 3017 3017 3019 3019 3016 3016 3017 3017 3017 3017 3017 3016 3016 3015 3015 3015 3013 3012 3011 3010 3009 3008 3007 3006 3005 3005 3004 3003 3002 3000 2999 2998 2997 2995 2994 2993 2991 2990 2988 2986 2984 2982 2980 2979 2977 2975 2973 2971 2969 2967 2965 2963 2961 2959 2956 2954 2952 2949 2946 2944 2941 2937 2934 2930 2925 2920 2917 2913
3025 3026 3028 3029 3028 3028 3028 3026 3024 3022 3017 3014 3014 3017 3016 3016 3016 3016 3013 3012 3015 3015 3012 3012 3014 3013 3013 3013 3012 3011 3011 3009 3009 3010 3009 3007 3006 3006 3005 3004 3003 3002 3002 3001 3000 2998 2997 2995 2994 2993 2992 2991 2990 2988 2987 2985 2983 2982 2980 2978 2976 2974 2972 2970 2968 2966 2964 2962 2960 2958 2955 2953 2950 2947 2945 2942 2939 2936 2933 2930 2926 2922 2917 2911 2906 2903
3020 3022 3024 3025 3024 3024 3023 3021 3019 3016 3010 3009 3012 3013 3012 3011 3012 3013 3011 3008 3009 3011 3010 3009 3009 3009 3009 3009 3007 3007 3007 3004 3004 3006 3005 3003 3002 3001 3000 2999 2999 2998 2997 2996 2995 2994 2992 2991 2990 2988 2987 2986 2985 2983 2982 2980 2979 2977 2975 2973 2971 2969 2967 2965 2963 2961 2958 2956 2954 2952 2949 2946 2943 2941 2938 2935 2932 2929 2925 2922 2918 2913 2908 2903 2897 2893
3017 3018 3020 3020 3019 3018 3017 3015 3012 3009 3006 3006 3009 3009 3009 3009 3010 3012 3008 3003 3004 3008 3007 3005 3005 3005 3005 3004 3003 3002 3002 3000 2999 3001 3000 2997 2996 2996 2995 2994 2994 2993 2992 2991 2990 2988 2987 2985 2984 2983 2982 2981 2980 2978 2977 2975 2974 2972 2970 2968 2965 2963 2961 2959 2957 2955 2953 2951 2949 2946 2943 2940 2937 2934 2931 2928 2925 2922 2918 2913 2909 2904 2899 2894 2889 2884
3013 3014 3015 3015 3012 3012 3011 3009 3006 3003 3002 3004 3005 3006 3007 3007 3007 3007 3003 3000 3002 3004 3002 3001 3001 3000 3000 2999 2998 2997 2997 2996 2995 2995 2994 2992 2991 2990 2989 2989 2988 2987 2986 2985 2984 2983 2982 2980 2979 2977 2976 2975 2974 2973 2971 2970 2968 2966 2964 2962 2960 2958 2956 2954 2952 2950 2948 2946 2943 2940 2937 2934 2931 2928 2924 2921 2917 2914 2910 2906 2900 2895 2890 2886 2881 2875
3008 3010 3011 3009 3007 3007 3006 3005 3002 2998 2997 2999 3001 3002 3003 3002 3001 2999 2997 2998 3000 2999 2997 2997 2997 2996 2996 2995 2993 2992 2991 2991 2990 2989 2988 2987 2985 2984 2984 2983 2982 2981 2980 2980 2979 2978 2977 2975 2974 2972 2971 2970 2969 2967 2966 2964 2962 2960 2958 2956 2954 2952 2951 2948 2946 2945 2943 2940 2938 2935 2932 2928 2925 2921 2918 2914 2910 2906 2902 2898 2892 2887 2882 2877 2872 2866
3005 3006 3004 3002 3002 3002 3001 3000 2997 2994 2994 2995 2996 2998 2998 2996 2995 2994 2994 2994 2994 2993 2993 2993 2992 2991 2991 2990 2988 2987 2986 2986 2985 2984 2983 2982 2980 2979 2978 2978 2977 2976 2976 2975 2974 2973 2972 2971 2969 2968 2966 2965 2963 2962 2960 2958 2956 2954 2952 2950 2949 2947 2945 2943 2941 2939 2937 2935 2932 2929 2926 2922 2919 2915 2911 2907 2903 2898 2894 2889 2884 2879 2874 2868 2863 2857
3001 3000 2998 2996 2996 2996 2994 2991 2989 2989 2992 2992 2992 2993 2993 2992 2991 2991 2990 2989 2989 2989 2989 2987 2987 2987 2986 2984 2983 2982 2981 2981 2980 2979 2979 2977 2976 2975 2974 2973 2972 2971 2971 2970 2969 2968 2967 2966 2964 2963 2961 2960 2958 2956 2955 2953 2951 2948 2947 2945 2943 2941 2939 2937 2936 2934 2931 2929 2926 2923 2920 2916 2913 2909 2905 2900 2896 2891 2886 2881 2877 2872 2866 2860 2854 2848
2995 2994 2993 2991 2990 2988 2987 2986 2985 2986 2989 2988 2987 2989 2990 2989 2988 2987 2986 2985 2985 2984 2983 2983 2982 2982 2981 2979 2978 2977 2977 2976 2975 2975 2974 2972 2971 2970 2969 2968 2967 2966 2966 2965 2964 2963 2962 2961 2959 2958 2956 2954 2953 2951 2949 2947 2945 2943 2941 2939 2937 2935 2933 2932 2930 2928 2926 2923 2920 2917 2914 2911 2907 2903 2899 2894 2889 2884 2879 2874 2869 2864 2859 2852 2846 2839
2990 2991 2989 2986 2984 2983 2983 2984 2984 2984 2985 2985 2985 2985 2985 2985 2985 2984 2982 2981 2981 2980 2979 2978 2977 2977 2976 2975 2974 2973 2972 2972 2971 2970 2969 2968 2967 2966 2965 2964 2963 2962 2961 2960 2959 2958 2957 2955 2954 2952 2950 2949 2947 2945 2943 2941 2939 2937 2935 2933 2931 2929 2927 2926 2924 2922 2920 2917 2914 2911 2907 2904 2901 2897 2892 2887 2882 2877 2872 2868 2862 2857 2851 2845 2839 2831
2986 2987 2984 2980 2979 2979 2978 2979 2980 2980 2981 2982 2981 2980 2980 2980 2980 2979 2978 2977 2976 2976 2975 2974 2973 2972 2971 2970 2969 2968 2968 2967 2966 2965 2964 2963 2962 2962 2961 2960 2959 2957 2956 2955 2954 2953 2952 2950 2948 2947 2945 2943 2941 2939 2938 2935 2933 2931 2929 2927 2925 2923 2922 2920 2918 2916 2914 2911 2908 2904 2901 2897 2894 2890 2886 2881 2876 2871 2867 2862 2856 2850 2845 2839 2832 2824
2980 2980 2977 2974 2974 2974 2973 2974 2976 2976 2976 2976 2975 2975 2975 2975 2974 2974 2973 2972 2972 2971 2970 2969 2968 2967 2966 2966 2965 2964 2963 2962 2961 2960 2959 2958 2957 2956 2956 2955 2954 2953 2952 2950 2949 2948 2946 2944 2943 2941 2940 2938 2936 2934 2932 2930 2927 2925 2923 2922 2920 2918 2916 2915 2913 2911 2908 2905 2901 2898 2894 2891 2887 2883 2879 2874 2869 2865 2861 2856 2850 2845 2839 2833 2825 2817
2976 2973 2970 2968 2969 2969 2968 2969 2970 2970 2969 2969 2969 2970 2970 2970 2969 2969 2968 2967 2967 2966 2965 2964 2963 2962 2962 2961 2960 2959 2958 2957 2957 2956 2954 2953 2952 2951 2951 2950 2949 2948 2946 2945 2944 2942 2940 2939 2937 2936 2934 2932 2930 2928 2926 2924 2922 2920 2918 2916 2914 2913 2911 2909 2907 2905 2902 2899 2895 2892 2888 2885 2880 2876 2871 2867 2863 2859 2855 2850 2844 2839 2833 2827 2820 2811
2969 2965 2964 2965 2964 2962 2962 2964 2965 2963 2962 2963 2964 2964 2964 2964 2963 2963 2962 2962 2961 2960 2960 2959 2958 2958 2957 2956 2955 2954 2953 2952 2952 2950 2949 2947 2947 2946 2945 2944 2943 2942 2941 2940 2938 2936 2935 2933 2931 2930 2928 2926 2924 2922 2920 2918 2916 2914 2912 2911 2909 2908 2906 2904 2902 2899 2896 2893 2889 2886 2882 2878 2874 2869 2865 2861 2857 2853 2848 2844 2839 2834 2827 2821 2815 2807
2961 2958 2960 2960 2957 2955 2957 2959 2959 2957 2956 2957 2959 2959 2958 2958 2957 2956 2956 2956 2955 2955 2954 2954 2953 2952 2952 2951 2950 2949 2948 2947 2946 2944 2943 2942 2941 2941 2940 2939 2938 2937 2936 2934 2932 2931 2929 2927 2925 2924 2922 2920 2918 2916 2914 2912 2911 2908 2907 2906 2904 2902 2901 2898 2896 2893 2890 2887 2883 2880 2876 2872 2868 2863 2859 2855 2851 2846 2841 2837 2833 2829 2824 2818 2810 2802